Location: Haieshausen
(51.8387°N, 9.9720°E)
Time: 04:23:23
(UTC+00:00)

MOZ.5/SAFIR/RUBIN 5/SL-8 - Pass Details

Date: 14 July 2020
Orbit: 678 x 706 km, 98.1° (Epoch: 10 August)

Event Time Altitude Azimuth Distance (km) Brightness Sun altitude
Exits shadow 00:25:51 17° 155° (SSE) 1,720 5.4 -15.4°
Maximum altitude 00:29:27 74° 73° (ENE) 737 4.0 -15.2°
Drops below altitude 10° 00:34:15 10° 348° (NNW) 2,189 7.4 -15.0°
Sets 00:36:31 0° 347° (NNW) 3,113 8.3 -14.9°
